Location: East Guldeford
(50.9500°N, 0.7500°E)
Time: 18:36:28
(UTC+00:00)

NOSS 3-4 (C) - Pass Details

Date: 12 May 2021
Orbit: 873 x 1339 km, 63.4° (Epoch: 06 May)

Event Time Altitude Azimuth Distance (km) Brightness Sun altitude
Rises 20:23:58 0° 314° (NW) 3,735 9.2 -6.9°
Reaches altitude 10° 20:26:29 10° 317° (NW) 2,843 7.7 -7.2°
Maximum altitude 20:33:14 67° 40° (NE) 1,212 4.0 -8.0°
Drops below altitude 10° 20:40:48 10° 123° (ESE) 3,174 5.5 -8.9°
Enters shadow 20:40:50 10° 123° (ESE) 3,186 5.5 -8.9°
